Dallas, TX

10:08 PM CST on February 12, 2016 (GMT -0600)
Redbird

Weather History for KRBD - January, 2014

Change the Weather History Date:

Friday, January 31, 2014

  Actual Average Record
Temperature  
Mean Temperature 64 °F -  
Max Temperature 75 °F 55 °F 78 °F (1997)
Min Temperature 53 °F 37 °F 27 °F (2000)
Degree Days  
Heating Degree Days 1    
Growing Degree Days 14 (Base 50)    
Moisture  
Dew Point 52 °F    
Average Humidity 67    
Maximum Humidity 84    
Minimum Humidity 38    
Precipitation  
Precipitation 0.00 in - - ()
Sea Level Pressure  
Sea Level Pressure 29.79 in    
Wind  
Wind Speed 12 mph (South)    
Max Wind Speed 15 mph    
Max Gust Speed 30 mph    
Visibility 10 miles    
Events      
Averages and records for this station are not official NWS values.
T = Trace of Precipitation, MM = Missing Value Source: NWS Daily Summary

Daily Weather History Graph

Daily Weather History Graph

Search for Another Location

Airport or City:

Trip Planner

Search our weather history database for the weather conditions in past years. The results will help you decide how hot, cold, wet, or windy it might be!

Date:

Astronomy

Jan. 31, 2014 Rise Set
Actual Time 7:22 AM CST 5:59 PM CST
Civil Twilight 6:56 AM CST 6:25 PM CST
Nautical Twilight 6:27 AM CST 6:54 PM CST
Astronomical Twilight 5:58 AM CST 7:23 PM CST
Moon 7:39 AM CST (1/31) 7:17 PM CST (1/31)
Length of Visible Light 11h 28m
Length of Day
10h 36m
New Moon, 1% of the Moon is Illuminated
Jan 31
New Moon
Feb 6
First Quarter
Feb 14
Full
Feb 22
Last Quarter
Mar 1
New

Hourly Weather History & Observations

Time (CST) Temp. Dew Point Humidity Pressure Visibility Wind Dir Wind Speed Gust Speed Precip Events Conditions
12:20 AM 53.6 °F 48.2 °F 82% 29.83 in 10.0 mi South 11.5 mph 19.6 mph N/A   Mostly Cloudy
12:53 AM 55.0 °F 50.0 °F 83% 29.81 in 10.0 mi South 15.0 mph 24.2 mph N/A   Overcast
1:53 AM 55.9 °F 51.1 °F 84% 29.80 in 10.0 mi South 15.0 mph 25.3 mph N/A   Overcast
2:53 AM 57.0 °F 51.1 °F 81% 29.79 in 10.0 mi South 12.7 mph 25.3 mph N/A   Overcast
3:38 AM 57.2 °F 51.8 °F 82% 29.79 in 10.0 mi South 12.7 mph 19.6 mph N/A   Overcast
3:53 AM 57.9 °F 52.0 °F 81% 29.78 in 10.0 mi South 13.8 mph 21.9 mph N/A   Overcast
4:53 AM 57.9 °F 51.1 °F 78% 29.78 in 10.0 mi South 10.4 mph 20.7 mph N/A   Overcast
5:53 AM 57.0 °F 51.1 °F 81% 29.78 in 10.0 mi South 12.7 mph 21.9 mph N/A   Overcast
6:53 AM 57.0 °F 51.1 °F 81% 29.81 in 10.0 mi South 10.4 mph 18.4 mph N/A   Overcast
7:53 AM 57.0 °F 51.1 °F 81% 29.83 in 10.0 mi Variable 5.8 mph - N/A   Overcast
8:53 AM 57.9 °F 51.1 °F 78% 29.85 in 10.0 mi South 9.2 mph 18.4 mph N/A   Overcast
9:53 AM 60.1 °F 51.1 °F 72% 29.87 in 10.0 mi South 8.1 mph 23.0 mph N/A   Mostly Cloudy
10:28 AM 62.6 °F 51.8 °F 68% 29.88 in 10.0 mi SSW 9.2 mph 19.6 mph N/A   Scattered Clouds
10:53 AM 64.0 °F 51.1 °F 63% 29.88 in 10.0 mi South 12.7 mph 20.7 mph N/A   Partly Cloudy
11:53 AM 68.0 °F 50.0 °F 52% 29.85 in 10.0 mi South 8.1 mph 20.7 mph N/A   Clear
12:53 PM 71.1 °F 50.0 °F 47% 29.81 in 10.0 mi South 13.8 mph 23.0 mph N/A   Clear
1:53 PM 73.0 °F 50.0 °F 44% 29.78 in 10.0 mi South 10.4 mph 20.7 mph N/A   Clear
2:53 PM 75.9 °F 48.9 °F 38% 29.77 in 10.0 mi South 11.5 mph 19.6 mph N/A   Clear
3:53 PM 75.0 °F 50.0 °F 41% 29.76 in 10.0 mi South 8.1 mph 18.4 mph N/A   Clear
4:53 PM 75.0 °F 51.1 °F 43% 29.75 in 10.0 mi South 9.2 mph 17.3 mph N/A   Clear
5:53 PM 73.0 °F 52.0 °F 48% 29.74 in 10.0 mi South 9.2 mph 17.3 mph N/A   Clear
6:53 PM 71.1 °F 54.0 °F 55% 29.75 in 10.0 mi SSE 13.8 mph 21.9 mph N/A   Clear
7:53 PM 69.1 °F 55.0 °F 61% 29.75 in 10.0 mi South 10.4 mph 23.0 mph N/A   Clear
8:53 PM 66.9 °F 55.0 °F 66% 29.75 in 10.0 mi SSE 12.7 mph 18.4 mph N/A   Clear
9:53 PM 66.0 °F 55.9 °F 70% 29.75 in 10.0 mi SSE 12.7 mph 19.6 mph N/A   Clear
10:53 PM 66.0 °F 57.9 °F 75% 29.75 in 10.0 mi South 11.5 mph 25.3 mph N/A   Partly Cloudy
11:11 PM 66.2 °F 57.2 °F 73% 29.76 in 10.0 mi South 13.8 mph 29.9 mph N/A   Mostly Cloudy
11:53 PM 66.0 °F 57.9 °F 75% 29.75 in 10.0 mi South 15.0 mph 27.6 mph N/A   Overcast